�������l�o���
Date,Time,MP-1(��Sv/h),MP-2(��Sv/h),MP-3(��Sv/h),MP-4(��Sv/h),MP-5(��Sv/h),MP-6(��Sv/h),MP-7(��Sv/h),MP-8(��Sv/h),����,����(m/s),���J
2017/03/21,00:00,1.042,1.711,1.157,2.013,1.403,0.551,1.010,0.937,��쐼,3.3,��
2017/03/21,00:10,1.043,1.708,1.158,2.014,1.406,0.550,1.010,0.937,��,2.6,��
2017/03/21,00:20,1.039,1.713,1.158,2.017,1.404,0.549,1.008,0.937,��,3.2,��
2017/03/21,00:30,1.041,1.709,1.157,2.016,1.401,0.550,1.009,0.935,��,3.1,��
2017/03/21,00:40,1.045,1.709,1.160,2.014,1.404,0.551,1.010,0.937,��쐼,2.6,��
2017/03/21,00:50,1.050,1.711,1.158,2.016,1.402,0.551,1.010,0.935,��쐼,2.6,��
2017/03/21,01:00,1.051,1.707,1.159,2.014,1.404,0.550,1.010,0.937,��,2.5,��
2017/03/21,01:10,1.050,1.710,1.159,2.015,1.405,0.550,1.011,0.937,��,0.9,��
2017/03/21,01:20,1.048,1.708,1.157,2.013,1.402,0.551,1.010,0.936,��쓌,2.0,��
2017/03/21,01:30,1.049,1.711,1.159,2.015,1.403,0.550,1.009,0.936,��,1.9,��
2017/03/21,01:40,1.045,1.709,1.159,2.019,1.402,0.551,1.009,0.936,��쓌,2.0,��
2017/03/21,01:50,1.041,1.710,1.159,2.014,1.404,0.551,1.011,0.937,��쓌,2.6,��
2017/03/21,02:00,1.040,1.711,1.158,2.015,1.405,0.551,1.010,0.936,���쓌,1.2,��
2017/03/21,02:10,1.048,1.710,1.157,2.018,1.403,0.551,1.010,0.937,�쓌,1.9,��
2017/03/21,02:20,1.050,1.710,1.157,2.015,1.404,0.551,1.009,0.936,��쓌,1.7,��
2017/03/21,02:30,1.048,1.712,1.159,2.014,1.404,0.550,1.010,0.937,��쓌,1.4,��
2017/03/21,02:40,1.049,1.710,1.157,2.017,1.403,0.549,1.008,0.936,��쓌,1.7,��
2017/03/21,02:50,1.050,1.709,1.156,2.015,1.405,0.550,1.009,0.936,��쓌,1.4,��
2017/03/21,03:00,1.050,1.711,1.159,2.017,1.404,0.552,1.010,0.936,��,1.1,��
2017/03/21,03:10,1.043,1.708,1.157,2.015,1.402,0.551,1.011,0.937,��,1.1,��
2017/03/21,03:20,1.041,1.705,1.156,2.012,1.403,0.551,1.008,0.936,�쓌,1.1,��
2017/03/21,03:30,1.041,1.712,1.159,2.014,1.403,0.552,1.011,0.936,���쓌,1.2,��
2017/03/21,03:40,1.041,1.708,1.156,2.016,1.403,0.551,1.010,0.936,���쓌,1.2,��
2017/03/21,03:50,1.041,1.709,1.158,2.016,1.403,0.550,1.011,0.938,�쓌,1.5,��
2017/03/21,04:00,1.042,1.709,1.159,2.017,1.403,0.552,1.010,0.937,�쓌,1.9,��
2017/03/21,04:10,1.039,1.711,1.158,2.014,1.402,0.551,1.010,0.937,�쓌,0.8,��
2017/03/21,04:20,1.038,1.709,1.159,2.015,1.405,0.552,1.009,0.938,�쓌,1.5,��
2017/03/21,04:30,1.040,1.710,1.156,2.018,1.405,0.552,1.011,0.937,�쓌,1.9,��
2017/03/21,04:40,1.041,1.711,1.158,2.017,1.405,0.552,1.009,0.938,�쓌,1.2,��
2017/03/21,04:50,1.041,1.710,1.160,2.015,1.405,0.551,1.011,0.937,���k��,1.2,��
2017/03/21,05:00,1.040,1.710,1.164,2.017,1.403,0.552,1.012,0.936,�k,1.5,��
2017/03/21,05:10,1.041,1.710,1.156,2.014,1.405,0.552,1.010,0.937,�k�k��,0.8,��
2017/03/21,05:20,1.038,1.709,1.160,2.016,1.404,0.550,1.010,0.937,�쐼,0.6,��
2017/03/21,05:30,1.040,1.711,1.161,2.017,1.407,0.553,1.012,0.937,��쓌,1.7,�L
2017/03/21,05:40,1.041,1.710,1.159,2.016,1.403,0.552,1.012,0.938,-,CALM,��
2017/03/21,05:50,1.043,1.709,1.158,2.017,1.406,0.551,1.012,0.936,�쓌,1.5,��
2017/03/21,06:00,1.042,1.707,1.158,2.018,1.403,0.550,1.010,0.938,-,CALM,��
2017/03/21,06:10,1.043,1.712,1.158,2.014,1.402,0.551,1.011,0.936,��,0.8,��
2017/03/21,06:20,1.043,1.713,1.160,2.016,1.404,0.552,1.013,0.938,���k��,1.7,��
2017/03/21,06:30,1.041,1.710,1.158,2.016,1.405,0.552,1.011,0.936,��,0.8,��
2017/03/21,06:40,1.042,1.713,1.160,2.016,1.404,0.552,1.009,0.936,-,CALM,��
2017/03/21,06:50,1.041,1.709,1.161,2.019,1.402,0.551,1.011,0.936,���쓌,1.9,��
2017/03/21,07:00,1.042,1.710,1.159,2.015,1.406,0.552,1.011,0.939,�k�k��,1.1,��
2017/03/21,07:10,1.042,1.709,1.162,2.017,1.405,0.552,1.012,0.935,�k��,2.1,�L
2017/03/21,07:20,1.041,1.711,1.160,2.017,1.404,0.550,1.011,0.937,���k��,0.8,�L
2017/03/21,07:30,1.042,1.708,1.159,2.018,1.404,0.552,1.011,0.937,��,1.9,�L
2017/03/21,07:40,1.041,1.707,1.159,2.017,1.402,0.551,1.012,0.936,�k�k��,0.9,�L
2017/03/21,07:50,1.040,1.709,1.160,2.015,1.403,0.552,1.011,0.936,�k�k��,1.1,�L
2017/03/21,08:00,1.036,1.708,1.159,2.017,1.401,0.552,1.011,0.935,-,CALM,��
2017/03/21,08:10,1.035,1.708,1.160,2.015,1.403,0.552,1.009,0.937,�k�k��,0.9,�L
2017/03/21,08:20,1.039,1.702,1.158,2.015,1.402,0.552,1.010,0.937,�k�k��,0.9,�L
2017/03/21,08:30,1.041,1.692,1.159,2.017,1.402,0.551,1.011,0.936,-,CALM,�L
2017/03/21,08:40,1.040,1.682,1.160,2.016,1.401,0.551,1.009,0.936,-,CALM,�L
2017/03/21,08:50,1.039,1.690,1.161,2.018,1.403,0.552,1.009,0.938,-,CALM,��
2017/03/21,09:00,1.040,1.687,1.159,2.017,1.403,0.553,1.011,0.937,-,CALM,�L
2017/03/21,09:10,1.040,1.662,1.160,2.017,1.404,0.551,1.011,0.938,-,CALM,�L
2017/03/21,09:20,1.041,1.671,1.160,2.017,1.404,0.550,1.010,0.936,�쓌,0.6,�L
2017/03/21,09:30,1.043,1.689,1.161,2.018,1.404,0.552,1.010,0.936,���쐼,0.7,�L
2017/03/21,09:40,1.047,1.672,1.161,2.017,1.402,0.551,1.011,0.936,��쐼,1.2,�L
2017/03/21,09:50,1.039,1.666,1.161,2.015,1.399,0.551,1.010,0.934,��,1.8,�L
2017/03/21,10:00,1.037,1.662,1.165,2.013,1.401,0.552,1.009,0.935,��,2.0,�L
2017/03/21,10:10,1.037,1.661,1.163,2.014,1.398,0.551,1.008,0.934,��,3.2,�L
2017/03/21,10:20,1.037,1.662,1.162,2.009,1.397,0.550,1.007,0.934,��,3.9,�L
2017/03/21,10:30,1.037,1.689,1.160,2.011,1.394,0.549,1.008,0.934,��,4.7,�L
2017/03/21,10:40,1.035,1.695,1.160,2.010,1.396,0.553,1.010,0.934,��,4.5,�L
2017/03/21,10:50,1.035,1.685,1.155,2.011,1.394,0.550,1.007,0.932,��쐼,3.9,�L
2017/03/21,11:00,1.035,1.690,1.153,2.008,1.395,0.552,1.006,0.933,��쐼,4.7,�L
2017/03/21,11:10,1.035,1.668,1.155,2.005,1.391,0.550,1.009,0.933,�쐼,4.1,�L
2017/03/21,11:20,1.034,1.676,1.155,2.004,1.386,0.550,1.008,0.933,��쐼,5.0,�L
2017/03/21,11:30,1.036,1.688,1.152,2.008,1.390,0.538,1.007,0.936,��쐼,4.0,�L
2017/03/21,11:40,1.034,1.688,1.151,2.005,1.390,0.541,1.006,0.936,��,4.6,�L
2017/03/21,11:50,1.033,1.685,1.151,2.002,1.387,0.542,1.007,0.938,��,4.9,�L
2017/03/21,12:00,1.030,1.683,1.151,2.001,1.383,0.544,1.006,0.935,��,5.1,�L
2017/03/21,12:10,1.030,1.682,1.149,2.001,1.381,0.550,1.008,0.932,��,6.5,�L
2017/03/21,12:20,1.028,1.679,1.147,2.000,1.381,0.550,1.006,0.934,��,5.5,�L
2017/03/21,12:30,1.026,1.673,1.146,1.999,1.378,0.551,1.004,0.933,��,6.5,�L
2017/03/21,12:40,1.024,1.671,1.142,1.998,1.373,0.550,1.004,0.934,��쐼,4.9,�L
2017/03/21,12:50,1.026,1.669,1.141,1.995,1.373,0.552,1.003,0.931,��쐼,4.8,�L
2017/03/21,13:00,1.023,1.667,1.141,1.990,1.368,0.551,1.004,0.932,��쐼,5.5,�L
2017/03/21,13:10,1.021,1.664,1.140,1.985,1.370,0.549,1.001,0.933,��쐼,4.5,�L
2017/03/21,13:20,1.020,1.662,1.138,1.985,1.368,0.550,1.001,0.929,��쐼,3.9,�L
2017/03/21,13:30,1.020,1.662,1.136,1.984,1.368,0.548,1.001,0.930,��쐼,3.7,�L
2017/03/21,13:40,1.019,1.660,1.136,1.984,1.363,0.551,1.001,0.930,�쐼,2.6,�L
2017/03/21,13:50,1.020,1.656,1.135,1.980,1.361,0.550,1.001,0.929,�쓌,1.5,�L
2017/03/21,14:00,1.017,1.656,1.134,1.979,1.359,0.549,1.000,0.930,�쓌,2.0,�L
2017/03/21,14:10,1.017,1.652,1.131,1.976,1.361,0.549,1.001,0.929,�쓌,2.6,�L
2017/03/21,14:20,1.015,1.651,1.131,1.975,1.359,0.549,1.000,0.929,��쓌,2.8,�L
2017/03/21,14:30,1.013,1.648,1.129,1.972,1.355,0.548,0.999,0.927,��쓌,1.9,�L
2017/03/21,14:40,1.012,1.647,1.128,1.969,1.357,0.549,0.999,0.929,��쓌,1.9,�L
2017/03/21,14:50,1.012,1.646,1.124,1.966,1.351,0.549,0.999,0.928,���k��,0.8,�L
2017/03/21,15:00,1.012,1.646,1.126,1.966,1.349,0.546,0.997,0.928,�k�k��,1.2,�L
2017/03/21,15:10,1.009,1.641,1.123,1.965,1.349,0.548,0.997,0.927,�k,1.9,�L
2017/03/21,15:20,1.004,1.639,1.124,1.961,1.344,0.547,0.995,0.926,�k�k��,1.7,�L
2017/03/21,15:30,1.004,1.631,1.118,1.956,1.343,0.547,0.994,0.924,�k�k��,2.2,�L
2017/03/21,15:40,1.002,1.631,1.119,1.953,1.341,0.548,0.996,0.925,�k��,2.0,�L
2017/03/21,15:50,1.003,1.627,1.116,1.946,1.337,0.545,0.993,0.925,�k��,2.3,�L
2017/03/21,16:00,1.001,1.625,1.114,1.942,1.338,0.548,0.993,0.923,�k�k��,2.6,�L
2017/03/21,16:10,0.999,1.623,1.113,1.938,1.331,0.546,0.993,0.924,���k��,2.8,�L
2017/03/21,16:20,0.997,1.623,1.111,1.932,1.330,0.547,0.990,0.923,�k��,1.9,�L
2017/03/21,16:30,0.998,1.620,1.110,1.930,1.328,0.545,0.991,0.920,�k�k��,2.0,�L
2017/03/21,16:40,0.998,1.616,1.112,1.928,1.327,0.546,0.988,0.920,�k,3.0,�L
2017/03/21,16:50,0.995,1.614,1.111,1.926,1.324,0.544,0.988,0.921,�k��,5.2,�L
2017/03/21,17:00,0.994,1.612,1.108,1.920,1.323,0.544,0.989,0.921,�k�k��,3.5,�L
2017/03/21,17:10,0.993,1.606,1.105,1.914,1.318,0.544,0.987,0.920,�k,5.0,�L
2017/03/21,17:20,0.992,1.604,1.105,1.913,1.319,0.545,0.987,0.919,�k�k��,4.2,�L
2017/03/21,17:30,0.992,1.608,1.105,1.915,1.321,0.543,0.987,0.921,�k,3.7,�L
2017/03/21,17:40,0.992,1.610,1.106,1.914,1.320,0.544,0.984,0.920,�k,4.0,�L
2017/03/21,17:50,0.993,1.609,1.107,1.911,1.320,0.542,0.985,0.921,�k�k��,3.8,�L
2017/03/21,18:00,0.994,1.610,1.105,1.915,1.317,0.542,0.987,0.919,�k�k��,3.6,�L
2017/03/21,18:10,0.991,1.610,1.103,1.916,1.318,0.542,0.986,0.918,�k,4.0,�L
2017/03/21,18:20,0.992,1.609,1.106,1.916,1.321,0.542,0.984,0.919,�k,3.9,�L
2017/03/21,18:30,0.993,1.612,1.107,1.914,1.318,0.542,0.985,0.918,�k,3.0,�L
2017/03/21,18:40,0.995,1.615,1.105,1.920,1.321,0.541,0.990,0.919,�k,2.9,��
2017/03/21,18:50,0.995,1.614,1.105,1.919,1.322,0.541,0.989,0.919,�k,3.6,�L
2017/03/21,19:00,0.993,1.616,1.107,1.918,1.320,0.541,0.987,0.920,�k�k��,3.5,�L
2017/03/21,19:10,0.992,1.616,1.107,1.916,1.322,0.543,0.988,0.920,�k�k��,3.8,�L
2017/03/21,19:20,0.992,1.614,1.105,1.915,1.321,0.540,0.989,0.920,�k��,4.0,�L
2017/03/21,19:30,0.992,1.610,1.100,1.913,1.318,0.541,0.987,0.919,�k�k��,4.1,�L
2017/03/21,19:40,0.993,1.609,1.103,1.912,1.319,0.542,0.986,0.918,�k�k��,4.5,�L
2017/03/21,19:50,0.991,1.610,1.102,1.911,1.316,0.540,0.986,0.919,�k�k��,4.3,�L
2017/03/21,20:00,0.992,1.607,1.102,1.910,1.316,0.543,0.986,0.915,�k�k��,4.7,�L
2017/03/21,20:10,0.989,1.605,1.100,1.907,1.312,0.542,0.987,0.916,�k�k��,5.1,�L
2017/03/21,20:20,0.990,1.607,1.100,1.905,1.314,0.542,0.988,0.917,�k�k��,4.6,�L
2017/03/21,20:30,0.990,1.605,1.099,1.906,1.309,0.540,0.985,0.917,�k�k��,5.6,�L
2017/03/21,20:40,0.987,1.602,1.100,1.902,1.309,0.541,0.986,0.914,�k�k��,5.9,�L
2017/03/21,20:50,0.988,1.601,1.097,1.900,1.307,0.541,0.984,0.916,�k�k��,5.9,�L
2017/03/21,21:00,0.985,1.598,1.096,1.900,1.303,0.540,0.985,0.915,�k��,6.2,�L
2017/03/21,21:10,0.987,1.596,1.097,1.895,1.306,0.541,0.983,0.914,�k��,6.2,�L
2017/03/21,21:20,0.985,1.593,1.097,1.896,1.303,0.540,0.984,0.915,�k�k��,6.1,�L
2017/03/21,21:30,0.985,1.595,1.097,1.898,1.302,0.540,0.984,0.916,�k�k��,5.8,�L
2017/03/21,21:40,0.985,1.598,1.096,1.899,1.304,0.540,0.983,0.916,�k�k��,5.7,�L
2017/03/21,21:50,0.983,1.593,1.096,1.898,1.302,0.538,0.982,0.915,�k�k��,6.5,�L
2017/03/21,22:00,0.984,1.599,1.096,1.897,1.301,0.540,0.985,0.914,�k�k��,5.8,�L
2017/03/21,22:10,0.987,1.597,1.098,1.901,1.301,0.541,0.985,0.916,�k�k��,5.9,�L
2017/03/21,22:20,0.988,1.601,1.099,1.902,1.308,0.542,0.984,0.917,�k�k��,6.2,�L
2017/03/21,22:30,0.987,1.604,1.100,1.900,1.306,0.541,0.984,0.914,�k�k��,6.4,�L
2017/03/21,22:40,0.987,1.605,1.100,1.906,1.308,0.541,0.984,0.916,�k�k��,6.3,��
2017/03/21,22:50,0.986,1.606,1.101,1.907,1.308,0.541,0.985,0.917,�k�k��,6.8,��
2017/03/21,23:00,0.986,1.609,1.102,1.906,1.307,0.540,0.985,0.918,�k,6.0,��
2017/03/21,23:10,0.989,1.608,1.102,1.906,1.311,0.542,0.986,0.917,�k�k��,6.3,��
2017/03/21,23:20,0.989,1.606,1.102,1.909,1.310,0.542,0.985,0.917,�k�k��,6.2,��
2017/03/21,23:30,0.989,1.610,1.102,1.910,1.312,0.540,0.987,0.917,�k�k��,5.8,��
2017/03/21,23:40,0.989,1.609,1.102,1.907,1.310,0.542,0.985,0.916,�k�k��,6.2,��
2017/03/21,23:50,0.991,1.613,1.102,1.908,1.310,0.541,0.986,0.916,�k�k��,6.5,��
